This is the latest recevied weather packets stored in our database for station/object W8CEN. If no packets are shown the sender has not sent any weather packets the latest 10 day(s).
| Time | Temp. | Humidity | Pressure | Rain* | Wind** | Luminosity | Snow |
|---|---|---|---|---|---|---|---|
| 1778072517 | 10.56° C | 82% | 990 hPa | 0 mm | - | 283 W/m² | - |
| 1778072215 | 10° C | 86% | 989.6 hPa | 0 mm | - | 203 W/m² | - |
| 1778071913 | 9.44° C | 87% | 989.6 hPa | 0 mm | - | 216 W/m² | - |
| 1778071610 | 9.44° C | 87% | 989.5 hPa | 0 mm | - | 102 W/m² | - |
| 1778071308 | 9.44° C | 89% | 989.7 hPa | 0 mm | - | 138 W/m² | - |
| 1778071005 | 8.89° C | 91% | 989.3 hPa | 0 mm | - | 163 W/m² | - |
| 1778070704 | 8.33° C | 93% | 989.3 hPa | 0 mm | - | 206 W/m² | - |
| 1778070400 | 8.33° C | 93% | 989.2 hPa | 0 mm | - | 94 W/m² | - |
| 1778070098 | 7.78° C | 93% | 989.2 hPa | 0 mm | - | 106 W/m² | - |
| 1778069795 | 7.78° C | 94% | 989.2 hPa | 0 mm | - | 105 W/m² | - |
| 1778069491 | 7.78° C | 95% | 989 hPa | 0 mm | - | 63 W/m² | - |
| 1778069190 | 7.78° C | 95% | 988.8 hPa | 0 mm | - | 87 W/m² | - |
| 1778068887 | 7.78° C | 95% | 988.9 hPa | 0 mm | - | 91 W/m² | - |
| 1778068585 | 7.22° C | 95% | 988.8 hPa | 0 mm | - | 66 W/m² | - |
| 1778068283 | 7.22° C | 96% | 988.6 hPa | 0 mm | - | 53 W/m² | - |
| 1778067980 | 7.22° C | 96% | 988.8 hPa | 0 mm | - | 53 W/m² | - |
| 1778067678 | 7.22° C | 96% | 988.8 hPa | 0 mm | - | 49 W/m² | - |
| 1778067376 | 7.22° C | 96% | 988.9 hPa | 0 mm | - | 46 W/m² | - |
| 1778067073 | 7.22° C | 96% | 988.7 hPa | 0 mm | - | 38 W/m² | - |
| 1778066769 | 7.22° C | 96% | 988.8 hPa | 0 mm | - | 23 W/m² | - |
| 1778066467 | 6.67° C | 96% | 988.6 hPa | 0 mm | - | 17 W/m² | - |
| 1778066165 | 6.67° C | 97% | 988.8 hPa | 0 mm | - | 12 W/m² | - |
| 1778065862 | 6.67° C | 97% | 988.3 hPa | 0 mm | - | 11 W/m² | - |
| 1778065559 | 6.67° C | 97% | 988.5 hPa | 0 mm | - | 6 W/m² | - |
| 1778065256 | 6.67° C | 97% | 988.2 hPa | 0 mm | - | 8 W/m² | - |
* Rain latest hour (hover to see other rain measurements)
** Current wind speed in m/s (hover to see current wind gust speed)